Location: Unspecified
(0.0000°N, 0.0000°E)
Time: 06:57:56
(UTC+00:00)

Transit 4A - Pass Details

Date: 10 October 2023
Orbit: 864 x 979 km, 66.8° (Epoch: 05 December)

Event Time Altitude Azimuth Distance (km) Brightness Sun altitude
Rises 19:20:43 0° 336° (NNW) 3,555 11.2 -23.3°
Reaches altitude 10° 19:23:16 10° 334° (NNW) 2,597 10.4 -23.9°
Maximum altitude 19:29:15 72° 251° (WSW) 938 8.0 -25.4°
Drops below altitude 10° 19:35:06 10° 167° (SSE) 2,534 10.1 -26.8°
Sets 19:37:34 0° 164° (SSE) 3,464 10.8 -27.4°
